Location: Prestice
(49.5670°N, 13.3170°E)
Time: 01:24:41
(UTC+02:00)

ISS - Visible Passes

Search period start: 02 October 2022 00:00
Search period end: 12 October 2022 00:00
Orbit: 416 x 420 km, 51.6° (Epoch: 01 October)

Date Brightness Start Highest point End Pass type
(mag) Time Alt. Az. Time Alt. Az. Time Alt. Az.
02 Oct -2.7 19:44:12 10° WNW 19:47:26 41° SSW 19:50:21 12° SE visible
03 Oct -1.0 20:34:09 10° WSW 20:35:54 13° SW 20:37:38 10° SSW visible
04 Oct -1.4 19:45:50 10° W 19:48:24 20° SW 19:50:57 10° S visible
07 Oct -0.7 19:00:49 10° WSW 19:02:35 14° SW 19:04:21 10° SSW visible
